sat.trackr.live / text

‹ back to catalog

STARLINK-34453

NORAD 64441 · 2025-130D

PAYLOAD ACTIVE UNKNOWN

§ Identity

Operator
Country
US
Launch date
2025-06-18
Launch site
AFETR
Launch vehicle
Mass (kg)
RCS (m²)

Purposes: comms

External: N2YO · Heavens-Above · Gunter

§ Orbital elements

Epoch: 2026-09-20T08:40:33.194784Z

Period
93.85 min
Inclination
53.1569°
Eccentricity
0.0001200
Mean motion
15.34403723 rev/d
Perigee alt
461.9 km
Apogee alt
463.5 km
Semi-major
6,840.8 km
B*
4.0039e-4
RAAN
260.3787°
Arg perigee
90.7477°
Mean anomaly
269.3663°
Rev number
7,056

§ Raw data

STARLINK-344531 64441U 25130D   26263.36149531  .00013177  00000+0  40039-3 0  99982 64441  53.1569 260.3787 0001200  90.7477 269.3663 15.34403723 70565

JSON: /api/v1/satellites/64441 · /tle

For live sub-satellite position, see the globe view (requires WebGL).

§ Visibility from observer

Set your observer location to see the next 7 days of passes ≥ 10°. The values pass through the URL so the page stays shareable.

No JS? Fill the form by hand. The geolocation button needs JavaScript.